This demonstration page uses our WeatherBlox Daily Observations layout. Learn more.

Left ArrowRight Arrow

36.19886, -115.1175

Hourly Observations for August 28, 2016

Temp ( °F °C ) Dew Point ( °F °C ) Humidity (%) Winds ( mph kmh ) Pressure ( in mb ) Visibility ( mi km ) Precip ( " mm )
12:53 am 00:53 Clear 77 25 50 10 39 39 Calm 29.98 1015 10 16.0934 0 0
1:53 am 01:53 Clear 76 24.4 51 10.6 42 42 SW 3 6 29.99 1016 10 16.0934 0 0
2:53 am 02:53 Clear 75 23.9 52 11.1 45 45 SSW 3 6 29.99 1016 10 16.0934 0 0
3:53 am 03:53 Clear 74 23.3 52 11.1 46 46 SSW 3 6 30 1016 10 16.0934 0 0
4:53 am 04:53 Clear 73 22.8 52 11.1 48 48 WSW 5 7 30.01 1016 10 16.0934 0 0
5:53 am 05:53 Clear 73 22.8 52 11.1 48 48 WSW 6 9 30.02 1017 10 16.0934 0 0
6:53 am 06:53 Sunny 73 22.8 53 11.7 50 50 SW 5 7 30.04 1017 10 16.0934 0 0
7:53 am 07:53 Sunny 76 24.4 53 11.7 45 45 S 3 6 30.06 1018 10 16.0934 0 0
8:53 am 08:53 Sunny 80 26.7 52 11.1 38 38 SE 3 6 30.07 1018 10 16.0934 0 0
9:53 am 09:53 Sunny 82 27.8 52 11.1 35 35 SE 6 9 30.07 1018 10 16.0934 0 0
10:53 am 10:53 Sunny 84 28.9 51 10.6 32 32 VRB 6 9 30.06 1018 10 16.0934 0 0
11:53 am 11:53 Sunny 86 30 51 10.6 30 30 E 5 7 30.05 1018 10 16.0934 0 0
12:53 pm 12:53 Sunny 89 31.7 50 10 26 26 E 8 13 30.03 1017 10 16.0934 0 0
1:53 pm 13:53 Sunny 90 32.2 50 10 25 25 VRB 3 6 30.01 1016 10 16.0934 0 0
2:53 pm 14:53 Sunny 91 32.8 50 10 25 25 Calm 29.98 1015 10 16.0934 0 0
3:53 pm 15:53 Sunny 94 34.4 48 8.9 21 21 Calm 29.96 1014 10 16.0934 0 0
4:53 pm 16:53 Sunny 94 34.4 48 8.9 21 21 VRB 5 7 29.94 1014 10 16.0934 0 0
5:53 pm 17:53 Sunny 94 34.4 47 8.3 20 20 Calm 29.94 1014 10 16.0934 0 0
6:53 pm 18:53 Sunny 93 33.9 47 8.3 21 21 Calm 29.94 1014 10 16.0934 0 0
7:53 pm 19:53 Clear 92 33.3 47 8.3 21 21 S 5 7 29.95 1014 10 16.0934 0 0
8:53 pm 20:53 Clear 91 32.8 48 8.9 23 23 SSW 3 6 29.96 1014 10 16.0934 0 0
9:53 pm 21:53 Clear 88 31.1 51 10.6 28 28 W 6 9 29.96 1015 10 16.0934 0 0
10:53 pm 22:53 Clear 84 28.9 51 10.6 32 32 N 3 6 29.97 1015 10 16.0934 0 0
11:53 pm 23:53 Clear 83 28.3 51 10.6 33 33 NW 7 11 29.97 1015 10 16.0934 0 0

Powered by AerisWeather